Location: Oshawa
(43.9000°N, 78.8670°W)
Time: 09:50:23
(UTC-04:00)

ITAMSAT 1 - Visible Passes

Search period start: 30 September 2014 00:00
Search period end: 10 October 2014 00:00
Orbit: 785 x 797 km, 98.7° (Epoch: 29 September)

Date Brightness Start Highest point End Pass type
(mag) Time Alt. Az. Time Alt. Az. Time Alt. Az.
30 Sep 10.2 02:57:42 10° NNE 02:59:04 17° NE 02:59:04 17° NE visible
30 Sep 9.2 04:37:18 10° N 04:39:49 24° NNW 04:39:49 24° NNW visible
01 Oct 10.6 02:29:25 10° NE 02:29:30 10° NE 02:29:30 10° NE visible
01 Oct 9.2 04:07:51 10° N 04:10:15 27° N 04:10:15 27° N visible
02 Oct 9.6 03:38:40 10° NNE 03:40:41 24° NNE 03:40:41 24° NNE visible
02 Oct 9.6 05:19:48 10° NNW 05:21:26 14° NW 05:21:26 14° NW visible
03 Oct 10.1 03:09:45 10° NNE 03:11:07 18° NNE 03:11:07 18° NNE visible
03 Oct 9.4 04:49:45 10° N 04:51:52 20° NNW 04:51:52 20° NNW visible
04 Oct 10.6 02:41:12 10° NE 02:41:33 12° NE 02:41:33 12° NE visible
04 Oct 9.4 04:20:10 10° N 04:22:18 23° N 04:22:18 23° N visible
05 Oct 9.6 03:50:53 10° NNE 03:52:44 23° N 03:52:44 23° N visible
05 Oct 9.8 05:32:47 10° NNW 05:33:28 11° NW 05:33:28 11° NW visible
06 Oct 10.1 03:21:51 10° NNE 03:23:10 18° NNE 03:23:10 18° NNE visible
06 Oct 9.6 05:02:16 10° NNW 05:03:54 16° NNW 05:03:54 16° NNW visible
07 Oct 10.5 02:53:07 10° NNE 02:53:35 12° NE 02:53:35 12° NE visible
07 Oct 9.5 04:32:32 10° N 04:34:20 20° NNW 04:34:20 20° NNW visible
08 Oct 9.7 04:03:08 10° N 04:04:46 20° N 04:04:46 20° N visible
09 Oct 10.1 03:34:00 10° NNE 03:35:11 17° NNE 03:35:11 17° NNE visible
09 Oct 9.7 05:14:54 10° NNW 05:15:56 13° NNW 05:15:56 13° NNW visible
